Find Starlink 32588

NORAD ID: 61866 Int'l Des: 2024-202 Owner: SPXS Country: US Constellation: starlink operational
LEOCIRCULAR

当前视图

正在加载3D地球...

关于 Starlink 32588

正在加载描述...

即将过境

Passes for default location (London). Set your location on the main map for personalized predictions.

高度历史

Loading altitude history...

两行轨道根数

1 61866U 24202X 26150.02455501 -.00000484 00000-0 -80547-5 0 9990
2 61866 43.0039 138.9222 0001156 208.3363 151.7426 15.27573214 87775
Epoch: May 30, 2026 • Age: 12 hours

当前状态

高度 482.9 km
速度 7.63 km/s
星下点 26.67°N, 146.91°W
发射日期 Nov 7, 2024
运行时间 1.5 years
类型 internet

技术详情

分类 Payload
质量 730.00 kg
干质量 700.00 kg
总质量 730.00 kg
长度 0.30 m
直径 4.10 m
跨度 29.00 m
形状 Box + pan
制造商 SPXS
平台类型 Starlink V2M
阶段状态 In Orbit
所有者/国家 SPXS/US

Most Searched